Location: Buckland
(65.9785°N, 161.1281°W)
Time: 15:36:01
(UTC+00:00)

Transit 4A - Pass Details

Date: 05 October 2022
Orbit: 871 x 972 km, 66.8° (Epoch: 29 November)

Event Time Altitude Azimuth Distance (km) Brightness Sun altitude
Exits shadow 16:05:31 - 302° (WNW) 3,333 10.3 -7.3°
Reaches altitude 10° 16:07:38 10° 297° (WNW) 2,570 9.7 -7.0°
Maximum altitude 16:13:08 41° 229° (SW) 1,256 8.3 -6.5°
Drops below altitude 10° 16:18:33 10° 161° (SSE) 2,525 10.4 -5.9°
Sets 16:21:07 0° 154° (SSE) 3,457 11.2 -5.7°
